Regional Weather Roundup
Issued by NWS

Home | Current Version | Previous Version | Text Only | Print | Product List | Glossary On
Versions: 1 2 3 4 5 6 7 8 9 10 11 12 13 14 15 16 17 18 19 20 21 22 23 24 25 26 27 28 29 30 31 32 33 34 35 36 37 38 39 40 41 42 43 44 45 46 47 48 49 50
000
ASUS44 KFWD 062315
RWRTX
NORTH TEXAS HOURLY WEATHER ROUNDUP
NATIONAL WEATHER SERVICE FORT WORTH TX
500 PM CST SAT FEB 06 2016

NOTE: "FAIR" INDICATES FEW OR NO CLOUDS BELOW 12,000 FEET WITH NO
SIGNIFICANT WEATHER AND/OR OBSTRUCTIONS TO VISIBILITY.

TXZ118-119-070000-
DALLAS/FORT WORTH METROPLEX

CITY           SKY/WX    TMP DP  RH WIND       PRES   REMARKS
DFW AIRPORT    MOSUNNY   52  32  46 N6        30.34S
DALLAS LOVE    MOSUNNY   51  35  54 VRB5      30.35S
FTW MEACHAM    PTSUNNY   53  34  48 CALM      30.35R
DAL-EXECUTIVE  MOSUNNY   50  36  58 N5        30.34S
FTW-ALLIANCE   MOSUNNY   52  32  46 E6        30.34S
FTW-NAS-JRB    MOSUNNY   52  32  46 NE3       30.36R
FTW-SPINKS     MOSUNNY   52  36  54 NE6       30.37S
ARLINGTON      MOSUNNY   53  34  48 NW6       30.36R
GRAND PRAIRIE  MOSUNNY   52  34  50 NW6       30.37S
ADDISON        PTSUNNY   50  34  53 W5        30.33F
MESQUITE       SUNNY     52  34  50 CALM      30.35S
LANCASTER      MOSUNNY   50  35  54 NW5       30.36S
$$

TXZ091>094-102>105-117-120-121-131>134-070000-
NORTH CENTRAL TEXAS

CITY           SKY/WX    TMP DP  RH WIND       PRES   REMARKS
SHRMAN/DENISON SUNNY     53  32  46 SW3       30.33F
GAINESVILLE    MOSUNNY   50  32  50 CALM      30.35S
BOWIE          MOSUNNY   51  30  44 CALM      30.33F
BRIDGEPORT     SUNNY     53  33  46 CALM      30.36S
DECATUR        PTSUNNY   51  31  45 CALM      30.33S
DENTON         PTSUNNY   51  34  52 E5        30.34S
MCKINNEY       SUNNY     52  34  50 W7        30.34S
GREENVILLE     CLOUDY    52  32  46 W5        30.33F
ROCKWALL       SUNNY     51  33  50 N5        30.33S
TERRELL        SUNNY     51  33  50 CALM      30.34F
WAXAHACHIE     CLOUDY    50  37  62 NW3       30.36S
CLEBURNE       SUNNY     50  34  53 NE8       30.37S
GRANBURY       SUNNY     55  33  43 CALM      30.36S
$$

TXZ083>090-098>101-113>116-127>130-139>142-154-155-070000-
WESTERN NORTH TEXAS

CITY           SKY/WX    TMP DP  RH WIND       PRES   REMARKS
WICHITA FALLS  SUNNY     53  26  35 NW9       30.33F
WF-KICKAPOO    SUNNY     55  25  31 CALM      30.34F
VERNON         SUNNY     55  13  19 CALM      30.32F
ABILENE        SUNNY     55  17  22 NW7       30.34F
ABILENE-DYESS  SUNNY     55  18  23 S3        30.32F
BRECKENRIDGE   SUNNY     55  21  26 NW5       30.34F
GRAHAM         SUNNY     54  27  36 W3        30.33S
MINERAL WELLS  MOSUNNY   54  29  38 NW6       30.33S
STEPHENVILLE   SUNNY     53  29  39 N6        30.37S
COMANCHE       SUNNY     54  25  32 N8        30.35S
BROWNWOOD      SUNNY     55  16  21 NW12      30.35S
COLEMAN        SUNNY     56  15  19 NW9       30.35S
$$

TXZ143>147-156>162-174-175-070000-
CENTRAL TEXAS

CITY           SKY/WX    TMP DP  RH WIND       PRES   REMARKS
WACO           PTSUNNY   53  35  50 N13G20    30.36R
WACO-MCGREGOR  PTSUNNY   52  36  54 N10       30.37R
HILLSBORO      PTSUNNY   50  34  54 N9        30.36R
CORSICANA      MOSUNNY   52  37  56 N7        30.35F
MEXIA          MOSUNNY   48  38  68 N7        30.34F
HEARNE         CLOUDY    49  37  64 NW10      30.37R
CAMERON        CLOUDY    51  37  56 N12       30.36R
TEMPLE         MOSUNNY   52  35  52 N17G24    30.35R
KILLEEN        SUNNY     54  30  40 N15       30.34R
KILLEEN-SKYLRK SUNNY     54  33  45 N9        30.35R
FORT HOOD      SUNNY     54  32  42 N9        30.32S
GATESVILLE     SUNNY     54  32  43 NE3       30.37S
HAMILTON       SUNNY     54  28  35 N7        30.35S
LAMPASAS       SUNNY     55  25  31 N9        30.34S
$$

TXZ095>097-106>112-122>126-135>138-148>153-164>167-070000-
EAST TEXAS

CITY           SKY/WX    TMP DP  RH WIND       PRES   REMARKS
PARIS          SUNNY     55  21  26 W5        30.30F
SULPHUR SPRNGS SUNNY     53  33  46 CALM      30.35S
MOUNT PLEASANT SUNNY     54  32  42 SW5       30.33S
GILMER         SUNNY     51  35  53 CALM      30.32S
MINEOLA        PTSUNNY   54  34  47 CALM      30.34F
TYLER          SUNNY     53  33  46 NE5       30.32F
LONGVIEW       MOSUNNY   51  35  54 W3        30.32S
MARSHALL       CLEAR     53  31  44 CALM      30.33S
ATHENS         MOSUNNY   50  32  50 N6        30.32F
PALESTINE      MOSUNNY   52  37  56 N3        30.33F
JACKSONVILLE   MOSUNNY   49  37  62 NE5       30.33S
HENDERSON      MOSUNNY   50  37  62 CALM      30.34S
CENTER         FAIR      49  41  74 NW3       30.33R
NACOGDOCHES    MOSUNNY   52  37  58 N7        30.32S
LUFKIN         SUNNY     52  37  56 NE5       30.31F
$$

SUPPLEMENTAL OBSERVATIONS (CENTRAL)

CITY           SKY/WX    TMP DP  RH WIND       PRES   REMARKS
LAKE TEXOMA      N/A     55  32  41 CALM        N/A
CADDO GRASSLND   N/A     55  32  41 NW3         N/A
PAT MAYSE LAKE   N/A     54  28  37 SW3         N/A
GREENVILLE       N/A     54  32  43 NW3         N/A
CEDAR HILL       N/A     52  36  54 NW2         N/A
LAKE LIMESTONE   N/A     50  37  62 NW7         N/A
MCGREGOR         N/A     52  34  50 N7G17       N/A
TEMPLE           N/A     54  34  47 N5G17       N/A
$$

SUPPLEMENTAL OBSERVATIONS (WEST)

CITY           SKY/WX    TMP DP  RH WIND       PRES   REMARKS
MILLERS CREEK    N/A     55  21  26 SW3         N/A
POSSUM KINGDOM   N/A     54  28  37 NW6         N/A
LBJ GRASSLAND    N/A     54  32  43 W3          N/A
GRANBURY         N/A     54  32  43 VRB3        N/A
COMANCHE         N/A     54  25  32 N9          N/A
HAMBY            N/A     55  18  22 N5G15       N/A
IVIE RESERVOIR   N/A     57  14  18 N9          N/A
COLORADO BEND    N/A     55  18  22 N8          N/A
$$

SUPPLEMENTAL OBSERVATIONS (EAST)

CITY           SKY/WX    TMP DP  RH WIND       PRES   REMARKS
CLARKSVILLE      N/A     55  21  26 SE3         N/A
TEXARKANA        N/A     57  25  28 NW1         N/A
LINDEN           N/A     57  28  33 N1          N/A
GILMER           N/A     55  36  47 W3          N/A
HENDERSON        N/A     52  37  58 NE6         N/A
LUFKIN           N/A     52  36  54 MISG        N/A
N SABINE NF      N/A     48  39  71 MISG        N/A
S SABINE NF      N/A     46  41  81 W2          N/A
$$

SUPPLEMENTAL OBSERVATIONS ARE A COLLECTION OF AUTOMATED INSTRUMENTS
THAT ARE MAINTAINED BY A VARIETY OF FEDERAL AND STATE AGENCIES.
CERTAIN ELEMENTS...SUCH AS HUMIDITY VALUES AND SUSTAINED WIND
SPEEDS...MAY BE APPROXIMATED.




USA.gov is the U.S. government's official web portal to all federal, state and local government web resources and services.